QPF
0.01 0.05 0.15 0.26 0.28 0.28 0.22 0.11 0.03 0.03 0.02 0.00 0.00 0.00 0.06 0.15 0.21 0.23 0.20 0.06 0.01 0.03 0.03 0.03 0.04 0.03 0.03 0.03 0.03 0.03 0.04 0.04 0.04 0.05 0.05 0.04 0.02 0.02 0.01 0.01 0.01 0.01 0.01 0.01 0.01 0.01 0.01 0.01 0.01
0.09 0.18 0.21 0.25 0.32 0.31 0.27 0.14 0.05 0.02 0.01 0.00 0.00 0.00 0.04 0.06 0.05 0.12 0.15 0.09 0.02 0.02 0.04 0.10 0.10 0.07 0.06 0.07 0.07 0.08 0.09 0.09 0.10 0.10 0.09 0.09 0.07 0.04 0.02 0.02 0.01 0.01 0.02 0.02 0.01 0.01 0.01 0.01 0.01
0.16 0.22 0.18 0.24 0.19 0.22 0.22 0.13 0.03 0.00 0.00 0.00 0.00 0.00 0.02 0.05 0.06 0.10 0.15 0.11 0.04 0.04 0.05 0.11 0.09 0.07 0.07 0.07 0.07 0.08 0.08 0.09 0.11 0.11 0.11 0.12 0.09 0.07 0.05 0.03 0.02 0.01 0.02 0.02 0.02 0.01 0.01 0.01 0.01
0.12 0.14 0.17 0.22 0.17 0.12 0.08 0.06 0.01 0.00 0.00 0.00 0.00 0.01 0.01 0.05 0.07 0.08 0.06 0.07 0.06 0.05 0.05 0.07 0.04 0.05 0.06 0.06 0.07 0.07 0.07 0.08 0.09 0.08 0.09 0.09 0.08 0.07 0.06 0.05 0.03 0.03 0.03 0.02 0.02 0.01 0.01 0.01 0.01
0.11 0.15 0.23 0.20 0.14 0.07 0.04 0.06 0.02 0.00 0.00 0.00 0.00 0.03 0.03 0.04 0.05 0.04 0.03 0.03 0.05 0.06 0.05 0.04 0.03 0.04 0.05 0.06 0.07 0.07 0.06 0.07 0.07 0.08 0.09 0.08 0.07 0.08 0.07 0.05 0.05 0.04 0.04 0.03 0.03 0.03 0.02 0.01 0.01
0.12 0.13 0.20 0.19 0.15 0.08 0.03 0.02 0.00 0.00 0.00 0.00 0.01 0.04 0.03 0.02 0.02 0.02 0.01 0.02 0.03 0.03 0.03 0.02 0.02 0.03 0.03 0.05 0.06 0.07 0.08 0.08 0.08 0.08 0.08 0.07 0.07 0.07 0.06 0.05 0.05 0.05 0.04 0.04 0.04 0.03 0.02 0.01 0.01
0.11 0.10 0.09 0.07 0.09 0.08 0.02 0.00 0.00 0.01 0.02 0.01 0.01 0.04 0.06 0.05 0.01 0.01 0.01 0.01 0.01 0.02 0.01 0.01 0.02 0.02 0.03 0.03 0.04 0.05 0.07 0.11 0.12 0.11 0.11 0.09 0.08 0.07 0.05 0.05 0.05 0.04 0.04 0.04 0.03 0.03 0.01 0.01 0.00
0.02 0.04 0.06 0.05 0.07 0.07 0.01 0.00 0.00 0.00 0.01 0.00 0.00 0.03 0.04 0.02 0.00 0.00 0.01 0.01 0.00 0.01 0.01 0.01 0.01 0.01 0.02 0.04 0.03 0.04 0.06 0.08 0.10 0.10 0.10 0.10 0.10 0.09 0.08 0.07 0.06 0.06 0.05 0.05 0.05 0.03 0.02 0.01 0.00
0.00 0.07 0.11 0.07 0.04 0.03 0.00 0.00 0.00 0.00 0.00 0.00 0.00 0.00 0.00 0.00 0.00 0.00 0.01 0.01 0.00 0.01 0.01 0.01 0.01 0.01 0.01 0.01 0.03 0.05 0.06 0.08 0.09 0.11 0.11 0.11 0.09 0.13 0.17 0.15 0.14 0.12 0.10 0.08 0.07 0.05 0.03 0.02 0.01
0.01 0.07 0.10 0.04 0.00 0.00 0.00 0.00 0.00 0.00 0.00 0.00 0.00 0.00 0.00 0.00 0.00 0.00 0.00 0.00 0.00 0.00 0.01 0.00 0.00 0.01 0.01 0.01 0.01 0.02 0.03 0.06 0.08 0.11 0.11 0.12 0.13 0.14 0.16 0.19 0.19 0.19 0.16 0.11 0.08 0.07 0.04 0.02 0.01
0.02 0.03 0.04 0.02 0.00 0.00 0.00 0.00 0.00 0.00 0.02 0.00 0.00 0.00 0.00 0.00 0.00 0.00 0.00 0.00 0.00 0.00 0.00 0.00 0.00 0.01 0.01 0.01 0.02 0.02 0.02 0.04 0.07 0.08 0.10 0.13 0.15 0.14 0.14 0.18 0.21 0.21 0.19 0.15 0.14 0.10 0.06 0.04 0.03
0.01 0.01 0.00 0.00 0.00 0.00 0.00 0.00 0.00 0.00 0.01 0.00 0.00 0.00 0.00 0.00 0.00 0.00 0.00 0.00 0.00 0.00 0.00 0.00 0.00 0.00 0.00 0.01 0.01 0.01 0.02 0.03 0.03 0.05 0.06 0.10 0.14 0.14 0.13 0.15 0.19 0.25 0.24 0.26 0.29 0.24 0.16 0.08 0.06
0.04 0.02 0.01 0.00 0.00 0.00 0.00 0.00 0.00 0.00 0.00 0.00 0.00 0.00 0.00 0.00 0.00 0.00 0.00 0.00 0.00 0.00 0.00 0.00 0.00 0.00 0.00 0.00 0.00 0.00 0.01 0.01 0.02 0.03 0.03 0.06 0.10 0.12 0.12 0.14 0.19 0.21 0.24 0.26 0.27 0.24 0.20 0.15 0.09
0.07 0.03 0.01 0.00 0.00 0.00 0.00 0.00 0.00 0.00 0.00 0.00 0.00 0.00 0.00 0.00 0.00 0.00 0.00 0.00 0.00 0.00 0.00 0.00 0.00 0.00 0.00 0.00 0.00 0.00 0.00 0.00 0.01 0.01 0.02 0.03 0.05 0.08 0.11 0.12 0.16 0.18 0.20 0.26 0.28 0.23 0.21 0.17 0.12
0.01 0.00 0.00 0.00 0.01 0.01 0.00 0.00 0.00 0.00 0.00 0.00 0.00 0.00 0.00 0.00 0.00 0.00 0.00 0.00 0.00 0.00 0.00 0.00 0.00 0.00 0.00 0.00 0.00 0.00 0.00 0.00 0.00 0.00 0.01 0.02 0.04 0.05 0.07 0.09 0.12 0.15 0.19 0.22 0.27 0.25 0.27 0.22 0.17
0.00 0.01 0.02 0.02 0.03 0.02 0.00 0.01 0.00 0.00 0.00 0.00 0.00 0.00 0.00 0.00 0.00 0.00 0.00 0.00 0.00 0.00 0.00 0.00 0.00 0.00 0.00 0.00 0.00 0.00 0.00 0.00 0.00 0.00 0.01 0.01 0.02 0.03 0.04 0.05 0.08 0.11 0.15 0.19 0.22 0.28 0.31 0.27 0.25
0.03 0.05 0.04 0.04 0.02 0.01 0.00 0.00 0.00 0.00 0.00 0.00 0.00 0.00 0.00 0.00 0.00 0.00 0.00 0.00 0.00 0.00 0.00 0.00 0.00 0.00 0.00 0.00 0.00 0.00 0.00 0.01 0.02 0.02 0.02 0.01 0.01 0.02 0.03 0.05 0.06 0.08 0.10 0.13 0.17 0.23 0.26 0.27 0.23
0.06 0.08 0.06 0.02 0.01 0.01 0.00 0.00 0.00 0.00 0.00 0.00 0.00 0.00 0.00 0.00 0.00 0.00 0.00 0.00 0.00 0.00 0.00 0.00 0.00 0.00 0.01 0.01 0.01 0.01 0.02 0.03 0.04 0.05 0.05 0.03 0.02 0.02 0.03 0.03 0.04 0.06 0.08 0.10 0.14 0.18 0.20 0.22 0.23
0.03 0.02 0.01 0.00 0.00 0.00 0.00 0.00 0.00 0.00 0.00 0.00 0.00 0.00 0.00 0.00 0.00 0.00 0.00 0.00 0.00 0.00 0.00 0.00 0.00 0.01 0.01 0.02 0.01 0.02 0.02 0.03 0.05 0.04 0.04 0.04 0.03 0.03 0.03 0.03 0.03 0.05 0.06 0.07 0.10 0.14 0.16 0.17 0.20
0.02 0.00 0.00 0.00 0.00 0.00 0.00 0.00 0.00 0.00 0.00 0.00 0.00 0.00 0.00 0.00 0.00 0.00 0.00 0.00 0.00 0.00 0.00 0.00 0.00 0.01 0.01 0.02 0.02 0.02 0.02 0.02 0.03 0.02 0.03 0.03 0.04 0.04 0.03 0.04 0.04 0.04 0.05 0.04 0.06 0.11 0.13 0.13 0.18
0.01 0.00 0.00 0.00 0.00 0.00 0.00 0.00 0.00 0.00 0.00 0.00 0.00 0.00 0.00 0.00 0.00 0.00 0.00 0.00 0.00 0.00 0.00 0.00 0.00 0.01 0.01 0.02 0.03 0.02 0.03 0.03 0.03 0.03 0.03 0.03 0.03 0.04 0.04 0.04 0.05 0.05 0.06 0.06 0.06 0.08 0.10 0.11 0.13
0.00 0.00 0.00 0.00 0.00 0.00 0.00 0.00 0.00 0.00 0.00 0.00 0.00 0.00 0.00 0.00 0.00 0.00 0.00 0.00 0.00 0.00 0.00 0.00 0.00 0.00 0.01 0.01 0.02 0.02 0.03 0.03 0.02 0.02 0.02 0.02 0.02 0.03 0.03 0.03 0.04 0.05 0.07 0.07 0.07 0.09 0.11 0.11 0.10
0.00 0.00 0.00 0.00 0.00 0.00 0.00 0.00 0.00 0.00 0.00 0.00 0.00 0.00 0.00 0.00 0.00 0.00 0.00 0.00 0.00 0.00 0.00 0.00 0.00 0.00 0.00 0.01 0.01 0.01 0.01 0.01 0.01 0.00 0.01 0.01 0.02 0.02 0.02 0.02 0.02 0.04 0.05 0.06 0.07 0.10 0.12 0.12 0.10
0.00 0.00 0.00 0.00 0.00 0.00 0.00 0.00 0.00 0.00 0.00 0.00 0.00 0.00 0.00 0.00 0.00 0.00 0.00 0.00 0.00 0.00 0.00 0.00 0.00 0.00 0.00 0.00 0.00 0.00 0.00 0.00 0.00 0.00 0.00 0.01 0.02 0.02 0.02 0.02 0.02 0.02 0.03 0.04 0.04 0.07 0.10 0.12 0.12
0.00 0.00 0.00 0.00 0.00 0.00 0.00 0.00 0.00 0.00 0.00 0.00 0.00 0.00 0.00 0.00 0.00 0.00 0.00 0.00 0.00 0.00 0.00 0.00 0.00 0.00 0.00 0.00 0.00 0.00 0.00 0.00 0.00 0.00 0.00 0.00 0.00 0.01 0.01 0.01 0.01 0.02 0.02 0.02 0.02 0.04 0.06 0.09 0.12
0.00 0.00 0.00 0.00 0.00 0.00 0.00 0.00 0.00 0.00 0.00 0.00 0.00 0.00 0.00 0.00 0.00 0.00 0.00 0.00 0.00 0.00 0.00 0.00 0.00 0.00 0.00 0.00 0.00 0.00 0.00 0.00 0.00 0.00 0.01 0.00 0.00 0.00 0.00 0.02 0.02 0.02 0.02 0.02 0.03 0.04 0.05 0.06 0.08
0.00 0.00 0.00 0.00 0.00 0.00 0.00 0.00 0.00 0.00 0.00 0.00 0.00 0.00 0.00 0.00 0.00 0.00 0.00 0.00 0.00 0.00 0.00 0.00 0.00 0.00 0.00 0.00 0.00 0.00 0.00 0.00 0.00 0.00 0.00 0.01 0.01 0.01 0.01 0.01 0.02 0.02 0.03 0.04 0.04 0.04 0.05 0.06 0.07
0.00 0.00 0.00 0.00 0.00 0.00 0.00 0.00 0.00 0.00 0.00 0.00 0.00 0.00 0.00 0.00 0.00 0.00 0.00 0.00 0.00 0.00 0.00 0.00 0.00 0.00 0.00 0.00 0.00 0.00 0.00 0.00 0.00 0.00 0.00 0.00 0.00 0.01 0.01 0.00 0.01 0.01 0.02 0.03 0.05 0.05 0.05 0.06 0.07
0.00 0.00 0.00 0.00 0.00 0.00 0.00 0.00 0.00 0.00 0.00 0.00 0.00 0.00 0.00 0.00 0.00 0.00 0.00 0.00 0.00 0.00 0.00 0.00 0.00 0.00 0.00 0.00 0.00 0.00 0.00 0.00 0.00 0.00 0.00 0.00 0.00 0.00 0.00 0.00 0.00 0.01 0.02 0.02 0.03 0.04 0.05 0.07 0.08
0.00 0.00 0.00 0.00 0.00 0.00 0.00 0.00 0.00 0.00 0.00 0.00 0.00 0.00 0.00 0.00 0.00 0.00 0.00 0.00 0.00 0.00 0.00 0.00 0.00 0.00 0.00 0.00 0.00 0.00 0.00 0.00 0.00 0.00 0.00 0.00 0.00 0.00 0.00 0.00 0.00 0.00 0.01 0.02 0.03 0.04 0.04 0.06 0.07
MSLP
1010.73 1011.80 1012.92 1013.91 1014.63 1014.97 1014.91 1014.52 1013.93 1013.33 1012.87 1012.68 1012.78 1013.13 1013.61 1014.07 1014.37 1014.40 1014.16 1013.71 1013.16 1012.66 1012.32 1012.23 1012.40 1012.77 1013.23 1013.67 1014.01 1014.20 1014.23 1014.16 1014.06 1013.99 1014.01 1014.12 1014.29 1014.49 1014.66 1014.76 1014.78 1014.75 1014.68 1014.61 1014.58 1014.59 1014.63 1014.69 1014.73
1011.09 1012.24 1013.36 1014.29 1014.88 1015.05 1014.82 1014.29 1013.62 1012.98 1012.56 1012.45 1012.66 1013.12 1013.68 1014.20 1014.52 1014.55 1014.29 1013.82 1013.26 1012.75 1012.44 1012.37 1012.57 1012.95 1013.42 1013.86 1014.18 1014.35 1014.37 1014.28 1014.17 1014.10 1014.10 1014.19 1014.34 1014.50 1014.62 1014.68 1014.67 1014.61 1014.53 1014.47 1014.46 1014.51 1014.60 1014.70 1014.77
1011.49 1012.69 1013.80 1014.64 1015.10 1015.12 1014.75 1014.10 1013.36 1012.72 1012.33 1012.28 1012.57 1013.10 1013.72 1014.27 1014.60 1014.64 1014.38 1013.92 1013.39 1012.93 1012.65 1012.62 1012.83 1013.22 1013.67 1014.07 1014.36 1014.49 1014.48 1014.37 1014.25 1014.17 1014.16 1014.24 1014.36 1014.48 1014.57 1014.59 1014.54 1014.46 1014.38 1014.33 1014.35 1014.44 1014.56 1014.70 1014.80
1011.90 1013.11 1014.17 1014.92 1015.26 1015.16 1014.68 1013.97 1013.20 1012.57 1012.22 1012.22 1012.56 1013.12 1013.76 1014.32 1014.65 1014.69 1014.46 1014.03 1013.55 1013.15 1012.92 1012.93 1013.16 1013.52 1013.93 1014.28 1014.50 1014.57 1014.52 1014.38 1014.25 1014.17 1014.16 1014.23 1014.34 1014.45 1014.51 1014.51 1014.45 1014.36 1014.28 1014.26 1014.30 1014.41 1014.56 1014.72 1014.83
1012.26 1013.44 1014.42 1015.07 1015.31 1015.12 1014.59 1013.86 1013.12 1012.53 1012.24 1012.29 1012.66 1013.22 1013.85 1014.38 1014.69 1014.72 1014.51 1014.14 1013.72 1013.38 1013.22 1013.25 1013.48 1013.80 1014.15 1014.42 1014.56 1014.56 1014.45 1014.29 1014.15 1014.08 1014.09 1014.17 1014.29 1014.40 1014.47 1014.46 1014.40 1014.32 1014.26 1014.25 1014.32 1014.45 1014.61 1014.76 1014.86
1012.50 1013.61 1014.49 1015.04 1015.20 1014.97 1014.44 1013.76 1013.09 1012.59 1012.38 1012.48 1012.86 1013.41 1013.99 1014.46 1014.73 1014.75 1014.55 1014.22 1013.86 1013.59 1013.47 1013.53 1013.73 1014.01 1014.27 1014.44 1014.49 1014.42 1014.26 1014.08 1013.94 1013.89 1013.93 1014.05 1014.19 1014.33 1014.41 1014.43 1014.39 1014.33 1014.30 1014.31 1014.39 1014.52 1014.67 1014.80 1014.87
1012.60 1013.59 1014.35 1014.79 1014.88 1014.65 1014.18 1013.60 1013.06 1012.70 1012.60 1012.76 1013.15 1013.67 1014.18 1014.58 1014.78 1014.76 1014.56 1014.26 1013.96 1013.74 1013.66 1013.72 1013.89 1014.10 1014.27 1014.35 1014.30 1014.16 1013.96 1013.77 1013.64 1013.62 1013.70 1013.85 1014.04 1014.21 1014.32 1014.37 1014.37 1014.34 1014.33 1014.37 1014.45 1014.58 1014.71 1014.80 1014.83
1012.54 1013.38 1014.00 1014.34 1014.38 1014.18 1013.81 1013.38 1013.01 1012.81 1012.84 1013.08 1013.49 1013.96 1014.40 1014.71 1014.84 1014.77 1014.56 1014.27 1014.01 1013.82 1013.76 1013.82 1013.95 1014.09 1014.18 1014.16 1014.04 1013.83 1013.60 1013.40 1013.29 1013.29 1013.41 1013.60 1013.82 1014.02 1014.17 1014.25 1014.28 1014.28 1014.30 1014.36 1014.46 1014.58 1014.68 1014.74 1014.71
1012.35 1013.03 1013.50 1013.74 1013.76 1013.61 1013.35 1013.10 1012.93 1012.91 1013.08 1013.40 1013.82 1014.26 1014.62 1014.84 1014.89 1014.77 1014.54 1014.26 1014.02 1013.87 1013.82 1013.86 1013.95 1014.03 1014.03 1013.94 1013.74 1013.49 1013.23 1013.03 1012.93 1012.96 1013.10 1013.31 1013.55 1013.77 1013.93 1014.03 1014.08 1014.12 1014.16 1014.24 1014.35 1014.47 1014.57 1014.60 1014.53
1012.10 1012.61 1012.94 1013.10 1013.10 1013.02 1012.90 1012.82 1012.85 1013.01 1013.30 1013.70 1014.13 1014.52 1014.81 1014.95 1014.93 1014.76 1014.51 1014.25 1014.03 1013.90 1013.86 1013.89 1013.94 1013.96 1013.90 1013.74 1013.49 1013.20 1012.92 1012.71 1012.62 1012.66 1012.80 1013.01 1013.25 1013.46 1013.62 1013.72 1013.78 1013.83 1013.90 1014.00 1014.13 1014.27 1014.36 1014.38 1014.30
1011.84 1012.22 1012.44 1012.53 1012.54 1012.53 1012.54 1012.62 1012.81 1013.11 1013.51 1013.95 1014.38 1014.73 1014.95 1015.02 1014.94 1014.74 1014.49 1014.25 1014.06 1013.95 1013.92 1013.94 1013.96 1013.93 1013.82 1013.61 1013.32 1013.01 1012.71 1012.50 1012.40 1012.43 1012.55 1012.74 1012.94 1013.12 1013.26 1013.34 1013.39 1013.45 1013.54 1013.66 1013.82 1013.98 1014.09 1014.13 1014.06
1011.66 1011.94 1012.09 1012.15 1012.18 1012.23 1012.34 1012.55 1012.86 1013.25 1013.70 1014.16 1014.56 1014.86 1015.02 1015.03 1014.91 1014.71 1014.48 1014.27 1014.11 1014.03 1014.02 1014.04 1014.03 1013.97 1013.82 1013.57 1013.26 1012.93 1012.63 1012.40 1012.29 1012.29 1012.38 1012.53 1012.68 1012.81 1012.90 1012.95 1012.98 1013.03 1013.12 1013.27 1013.45 1013.64 1013.79 1013.86 1013.82
1011.61 1011.84 1011.96 1012.02 1012.08 1012.18 1012.37 1012.65 1013.01 1013.44 1013.89 1014.31 1014.65 1014.89 1014.99 1014.97 1014.85 1014.66 1014.46 1014.30 1014.20 1014.16 1014.16 1014.18 1014.16 1014.07 1013.89 1013.63 1013.30 1012.96 1012.65 1012.42 1012.29 1012.26 1012.31 1012.40 1012.49 1012.56 1012.59 1012.60 1012.60 1012.64 1012.73 1012.88 1013.08 1013.31 1013.50 1013.61 1013.62
1011.70 1011.93 1012.06 1012.14 1012.24 1012.38 1012.60 1012.90 1013.26 1013.65 1014.04 1014.38 1014.65 1014.82 1014.87 1014.83 1014.73 1014.58 1014.45 1014.35 1014.30 1014.30 1014.33 1014.35 1014.32 1014.21 1014.02 1013.74 1013.41 1013.08 1012.77 1012.53 1012.39 1012.33 1012.33 1012.37 1012.40 1012.41 1012.39 1012.35 1012.32 1012.33 1012.41 1012.55 1012.76 1013.00 1013.23 1013.38 1013.44
1011.92 1012.18 1012.34 1012.46 1012.59 1012.76 1012.98 1013.25 1013.54 1013.85 1014.14 1014.37 1014.54 1014.64 1014.66 1014.63 1014.56 1014.48 1014.42 1014.39 1014.40 1014.44 1014.48 1014.50 1014.46 1014.34 1014.14 1013.87 1013.56 1013.23 1012.94 1012.71 1012.55 1012.47 1012.44 1012.43 1012.41 1012.37 1012.30 1012.22 1012.16 1012.14 1012.19 1012.32 1012.51 1012.75 1012.99 1013.18 1013.27
1012.22 1012.51 1012.72 1012.88 1013.04 1013.21 1013.40 1013.60 1013.80 1013.98 1014.14 1014.26 1014.34 1014.38 1014.38 1014.37 1014.36 1014.36 1014.38 1014.42 1014.48 1014.55 1014.60 1014.61 1014.56 1014.44 1014.25 1013.99 1013.70 1013.41 1013.14 1012.93 1012.78 1012.68 1012.62 1012.57 1012.51 1012.44 1012.34 1012.22 1012.12 1012.07 1012.08 1012.17 1012.34 1012.55 1012.78 1012.98 1013.10
1012.53 1012.84 1013.09 1013.29 1013.46 1013.62 1013.76 1013.87 1013.96 1014.01 1014.03 1014.04 1014.04 1014.04 1014.06 1014.09 1014.15 1014.24 1014.34 1014.44 1014.54 1014.62 1014.67 1014.67 1014.61 1014.48 1014.30 1014.08 1013.83 1013.59 1013.36 1013.18 1013.03 1012.93 1012.85 1012.78 1012.69 1012.58 1012.46 1012.32 1012.19 1012.10 1012.08 1012.12 1012.23 1012.40 1012.59 1012.78 1012.92
1012.77 1013.11 1013.38 1013.60 1013.78 1013.92 1014.00 1014.02 1013.99 1013.92 1013.82 1013.73 1013.68 1013.67 1013.72 1013.82 1013.96 1014.13 1014.30 1014.45 1014.58 1014.66 1014.68 1014.66 1014.59 1014.47 1014.32 1014.14 1013.96 1013.77 1013.60 1013.45 1013.32 1013.22 1013.12 1013.02 1012.91 1012.78 1012.63 1012.48 1012.33 1012.22 1012.14 1012.14 1012.19 1012.29 1012.44 1012.58 1012.72
1012.92 1013.25 1013.54 1013.78 1013.96 1014.08 1014.10 1014.04 1013.90 1013.72 1013.53 1013.38 1013.29 1013.30 1013.40 1013.58 1013.81 1014.05 1014.28 1014.47 1014.59 1014.66 1014.66 1014.61 1014.53 1014.43 1014.31 1014.20 1014.08 1013.97 1013.86 1013.75 1013.64 1013.53 1013.41 1013.29 1013.15 1013.00 1012.84 1012.67 1012.51 1012.37 1012.26 1012.20 1012.19 1012.23 1012.31 1012.41 1012.52
1012.97 1013.29 1013.58 1013.84 1014.03 1014.12 1014.10 1013.97 1013.74 1013.47 1013.22 1013.02 1012.93 1012.97 1013.13 1013.38 1013.69 1014.01 1014.28 1014.49 1014.60 1014.63 1014.60 1014.53 1014.44 1014.36 1014.30 1014.25 1014.22 1014.18 1014.13 1014.06 1013.96 1013.84 1013.70 1013.54 1013.37 1013.20 1013.02 1012.86 1012.69 1012.54 1012.41 1012.31 1012.24 1012.21 1012.22 1012.27 1012.34
1012.93 1013.25 1013.57 1013.85 1014.05 1014.13 1014.07 1013.88 1013.59 1013.25 1012.94 1012.71 1012.63 1012.70 1012.91 1013.24 1013.62 1013.99 1014.29 1014.50 1014.59 1014.59 1014.53 1014.43 1014.35 1014.29 1014.28 1014.31 1014.35 1014.39 1014.40 1014.36 1014.27 1014.13 1013.95 1013.75 1013.55 1013.35 1013.17 1013.01 1012.85 1012.70 1012.57 1012.44 1012.33 1012.24 1012.18 1012.17 1012.19
1012.87 1013.22 1013.57 1013.89 1014.11 1014.19 1014.11 1013.87 1013.51 1013.11 1012.75 1012.50 1012.41 1012.50 1012.76 1013.14 1013.56 1013.97 1014.29 1014.49 1014.56 1014.53 1014.43 1014.32 1014.24 1014.21 1014.26 1014.35 1014.47 1014.57 1014.63 1014.61 1014.52 1014.35 1014.14 1013.90 1013.66 1013.45 1013.26 1013.10 1012.97 1012.84 1012.70 1012.57 1012.42 1012.28 1012.17 1012.09 1012.06
1012.85 1013.25 1013.66 1014.03 1014.28 1014.37 1014.26 1013.98 1013.56 1013.10 1012.68 1012.39 1012.28 1012.37 1012.64 1013.04 1013.50 1013.92 1014.24 1014.43 1014.49 1014.43 1014.31 1014.19 1014.11 1014.12 1014.20 1014.35 1014.53 1014.68 1014.77 1014.77 1014.67 1014.48 1014.23 1013.95 1013.69 1013.46 1013.27 1013.13 1013.02 1012.92 1012.80 1012.67 1012.50 1012.32 1012.15 1012.01 1011.91
1012.91 1013.38 1013.87 1014.30 1014.58 1014.68 1014.55 1014.22 1013.74 1013.20 1012.71 1012.36 1012.21 1012.27 1012.53 1012.93 1013.39 1013.81 1014.14 1014.32 1014.36 1014.29 1014.16 1014.03 1013.97 1013.99 1014.10 1014.29 1014.50 1014.68 1014.79 1014.80 1014.69 1014.48 1014.20 1013.90 1013.62 1013.38 1013.21 1013.10 1013.01 1012.94 1012.85 1012.71 1012.53 1012.32 1012.10 1011.89 1011.73
1013.06 1013.62 1014.18 1014.66 1014.98 1015.07 1014.92 1014.54 1013.99 1013.37 1012.81 1012.38 1012.16 1012.18 1012.41 1012.78 1013.23 1013.65 1013.97 1014.15 1014.19 1014.12 1013.98 1013.86 1013.79 1013.82 1013.94 1014.14 1014.36 1014.56 1014.67 1014.68 1014.56 1014.34 1014.05 1013.74 1013.46 1013.23 1013.08 1012.99 1012.94 1012.89 1012.81 1012.68 1012.49 1012.24 1011.97 1011.71 1011.48
1013.27 1013.90 1014.52 1015.04 1015.38 1015.46 1015.28 1014.84 1014.23 1013.54 1012.90 1012.39 1012.11 1012.07 1012.25 1012.59 1013.02 1013.43 1013.75 1013.93 1013.98 1013.91 1013.78 1013.66 1013.59 1013.61 1013.73 1013.91 1014.13 1014.31 1014.42 1014.42 1014.29 1014.07 1013.79 1013.50 1013.23 1013.03 1012.90 1012.83 1012.80 1012.77 1012.70 1012.57 1012.36 1012.09 1011.77 1011.46 1011.18
1013.49 1014.16 1014.81 1015.34 1015.67 1015.74 1015.52 1015.04 1014.38 1013.63 1012.93 1012.36 1012.02 1011.92 1012.06 1012.37 1012.77 1013.17 1013.49 1013.68 1013.75 1013.70 1013.58 1013.46 1013.38 1013.39 1013.48 1013.63 1013.82 1013.98 1014.06 1014.06 1013.94 1013.74 1013.48 1013.21 1012.97 1012.80 1012.69 1012.64 1012.63 1012.60 1012.53 1012.39 1012.16 1011.86 1011.51 1011.16 1010.84
1013.64 1014.31 1014.95 1015.46 1015.76 1015.80 1015.55 1015.04 1014.35 1013.58 1012.85 1012.26 1011.88 1011.74 1011.84 1012.12 1012.50 1012.89 1013.22 1013.43 1013.51 1013.48 1013.38 1013.27 1013.18 1013.16 1013.22 1013.34 1013.47 1013.60 1013.67 1013.66 1013.55 1013.38 1013.16 1012.93 1012.73 1012.59 1012.50 1012.46 1012.45 1012.41 1012.33 1012.16 1011.92 1011.60 1011.23 1010.86 1010.52
1013.67 1014.29 1014.87 1015.32 1015.57 1015.57 1015.30 1014.80 1014.12 1013.37 1012.65 1012.07 1011.69 1011.55 1011.63 1011.88 1012.24 1012.62 1012.94 1013.17 1013.27 1013.27 1013.19 1013.09 1013.00 1012.96 1012.98 1013.05 1013.15 1013.24 1013.29 1013.28 1013.20 1013.06 1012.88 1012.70 1012.55 1012.43 1012.36 1012.32 1012.29 1012.23 1012.12 1011.93 1011.67 1011.34 1010.97 1010.60 1010.26
1013.54 1014.07 1014.55 1014.92 1015.11 1015.07 1014.80 1014.32 1013.70 1013.01 1012.36 1011.83 1011.48 1011.35 1011.43 1011.66 1012.00 1012.36 1012.68 1012.91 1013.03 1013.05 1012.99 1012.90 1012.82 1012.77 1012.77 1012.81 1012.87 1012.94 1012.98 1012.98 1012.92 1012.82 1012.69 1012.56 1012.44 1012.35 1012.28 1012.23 1012.17 1012.08 1011.93 1011.72 1011.45 1011.12 1010.76 1010.40 1010.08
Thickness
5821 5820 5816 5802 5780 5767 5766 5781 5795 5796 5802 5811 5813 5805 5789 5779 5770 5758 5781 5795 5797 5793 5788 5783 5780 5778 5776 5774 5773 5771 5770 5769 5767 5766 5765 5764 5763 5762 5761 5761 5761 5761 5761 5762 5762 5762 5763 5763 5764
5825 5822 5809 5793 5770 5756 5761 5782 5788 5797 5808 5815 5812 5803 5790 5780 5784 5781 5784 5791 5794 5790 5785 5781 5777 5775 5773 5772 5770 5769 5768 5767 5766 5764 5763 5763 5762 5761 5761 5761 5760 5760 5761 5761 5761 5761 5761 5761 5761
5826 5822 5801 5786 5773 5765 5767 5785 5794 5806 5814 5811 5802 5795 5782 5773 5778 5779 5784 5790 5789 5785 5781 5776 5774 5772 5770 5769 5768 5766 5766 5765 5764 5763 5762 5761 5761 5760 5760 5760 5760 5760 5760 5759 5759 5759 5759 5759 5759
5823 5811 5800 5781 5775 5785 5789 5795 5802 5802 5806 5809 5801 5783 5776 5778 5777 5780 5785 5786 5783 5780 5776 5772 5770 5768 5767 5766 5765 5764 5763 5762 5762 5761 5761 5760 5759 5759 5759 5759 5759 5759 5759 5758 5758 5758 5758 5758 5758
5821 5803 5782 5772 5779 5792 5799 5803 5804 5796 5796 5798 5793 5774 5767 5777 5781 5781 5780 5779 5776 5774 5771 5768 5766 5765 5764 5763 5762 5761 5760 5760 5759 5759 5759 5758 5758 5758 5758 5758 5758 5758 5758 5758 5757 5757 5757 5757 5757
5807 5801 5773 5764 5778 5790 5798 5803 5801 5793 5792 5794 5787 5772 5763 5776 5775 5775 5775 5772 5770 5768 5766 5763 5761 5760 5759 5758 5758 5757 5756 5756 5756 5756 5756 5756 5756 5756 5756 5756 5756 5757 5757 5757 5756 5756 5756 5756 5756
5800 5793 5780 5777 5779 5783 5795 5804 5796 5789 5785 5786 5788 5767 5761 5768 5772 5773 5770 5768 5765 5763 5760 5758 5757 5755 5754 5753 5753 5753 5753 5753 5753 5753 5753 5753 5753 5754 5754 5755 5755 5755 5756 5756 5755 5755 5755 5755 5756
5817 5798 5776 5775 5777 5779 5797 5800 5797 5790 5782 5791 5787 5764 5754 5763 5770 5769 5766 5763 5760 5758 5755 5753 5751 5750 5749 5748 5748 5748 5748 5748 5749 5749 5750 5750 5750 5751 5751 5752 5753 5754 5754 5754 5755 5754 5754 5755 5755
5822 5788 5762 5771 5779 5783 5797 5792 5791 5794 5784 5779 5775 5767 5764 5768 5767 5762 5756 5753 5751 5749 5748 5747 5745 5744 5743 5743 5743 5743 5743 5743 5744 5745 5746 5747 5746 5747 5748 5749 5750 5751 5752 5752 5753 5754 5754 5754 5755
5812 5779 5771 5786 5797 5792 5793 5790 5787 5782 5771 5765 5764 5764 5766 5764 5759 5751 5746 5742 5740 5739 5739 5739 5737 5737 5736 5736 5736 5736 5737 5737 5738 5740 5741 5742 5742 5743 5744 5745 5746 5747 5748 5749 5751 5752 5753 5753 5755
5805 5789 5794 5799 5804 5800 5791 5787 5787 5774 5759 5760 5756 5755 5758 5754 5750 5744 5740 5737 5734 5734 5731 5731 5729 5729 5729 5729 5729 5729 5729 5731 5732 5734 5735 5736 5737 5738 5739 5740 5742 5744 5745 5746 5748 5749 5751 5753 5755
5803 5803 5806 5802 5801 5796 5789 5784 5778 5770 5762 5767 5761 5757 5753 5747 5741 5738 5734 5731 5730 5727 5724 5724 5721 5721 5720 5720 5719 5720 5723 5725 5726 5727 5728 5730 5731 5732 5734 5736 5737 5739 5740 5743 5744 5745 5748 5751 5755
5796 5796 5802 5802 5797 5794 5788 5779 5771 5764 5766 5765 5759 5753 5747 5742 5738 5736 5734 5730 5726 5722 5719 5718 5715 5713 5712 5712 5711 5714 5715 5717 5719 5720 5722 5724 5726 5727 5730 5732 5733 5735 5737 5739 5741 5743 5745 5748 5752
5789 5791 5795 5797 5792 5788 5778 5773 5767 5761 5763 5758 5753 5748 5745 5739 5735 5733 5729 5724 5721 5718 5715 5713 5710 5709 5706 5705 5705 5706 5707 5709 5711 5713 5715 5718 5721 5723 5725 5727 5729 5731 5733 5735 5737 5739 5741 5744 5748
5805 5793 5790 5789 5784 5781 5774 5761 5764 5764 5760 5753 5749 5747 5742 5739 5736 5731 5727 5722 5718 5715 5712 5709 5707 5704 5701 5698 5697 5699 5700 5702 5703 5706 5708 5711 5714 5717 5720 5721 5724 5726 5729 5731 5733 5734 5736 5739 5742
5797 5782 5766 5775 5776 5772 5761 5744 5761 5764 5756 5748 5747 5746 5740 5738 5736 5732 5727 5721 5717 5712 5708 5706 5704 5699 5696 5693 5692 5693 5694 5695 5696 5698 5700 5703 5706 5710 5712 5715 5717 5721 5723 5726 5727 5729 5729 5732 5736
5773 5753 5750 5758 5773 5771 5760 5749 5757 5763 5755 5748 5747 5746 5741 5738 5736 5731 5726 5719 5714 5710 5705 5704 5701 5696 5692 5690 5689 5689 5689 5689 5690 5692 5693 5695 5698 5701 5704 5707 5710 5714 5717 5719 5722 5724 5725 5727 5730
5750 5742 5748 5758 5769 5769 5760 5757 5761 5763 5756 5750 5748 5745 5742 5738 5734 5730 5724 5719 5714 5709 5705 5702 5699 5694 5690 5687 5685 5684 5684 5684 5685 5686 5687 5688 5691 5694 5697 5700 5703 5706 5709 5711 5715 5717 5720 5723 5725
5764 5763 5764 5771 5775 5766 5758 5759 5762 5761 5755 5749 5747 5746 5742 5739 5737 5731 5725 5720 5713 5707 5703 5701 5696 5692 5688 5683 5680 5678 5678 5679 5681 5682 5682 5683 5685 5687 5690 5692 5695 5698 5701 5704 5708 5710 5712 5716 5719
5765 5764 5768 5773 5772 5764 5756 5759 5767 5764 5757 5754 5749 5747 5743 5739 5734 5729 5724 5718 5711 5705 5702 5699 5694 5690 5686 5682 5679 5678 5677 5677 5678 5678 5679 5680 5681 5683 5685 5686 5688 5692 5694 5697 5700 5703 5705 5709 5713
5766 5763 5761 5757 5764 5765 5754 5748 5759 5764 5762 5757 5752 5748 5745 5740 5732 5726 5721 5715 5710 5705 5701 5697 5693 5690 5686 5682 5679 5676 5675 5674 5673 5673 5675 5677 5678 5679 5680 5681 5683 5685 5688 5689 5693 5696 5698 5699 5705
5756 5766 5762 5756 5746 5746 5752 5729 5749 5757 5752 5752 5750 5746 5743 5739 5733 5726 5720 5714 5710 5706 5702 5697 5693 5689 5685 5682 5677 5673 5670 5668 5669 5670 5672 5674 5676 5676 5676 5677 5678 5680 5682 5684 5687 5691 5693 5694 5696
5759 5765 5760 5755 5747 5742 5750 5736 5747 5754 5745 5748 5749 5747 5744 5740 5734 5727 5721 5716 5712 5708 5703 5698 5694 5690 5686 5683 5679 5676 5672 5670 5670 5671 5671 5671 5672 5673 5673 5673 5674 5675 5677 5679 5682 5684 5687 5689 5691
5764 5759 5756 5753 5744 5728 5750 5742 5738 5748 5747 5748 5749 5748 5745 5741 5735 5729 5724 5719 5714 5711 5706 5701 5696 5692 5689 5686 5683 5679 5675 5672 5671 5669 5668 5668 5669 5670 5670 5670 5670 5671 5672 5674 5676 5679 5681 5684 5686
5757 5742 5728 5725 5720 5734 5756 5743 5742 5752 5757 5753 5749 5748 5745 5741 5735 5730 5725 5719 5715 5712 5708 5703 5699 5694 5692 5688 5685 5682 5679 5675 5672 5669 5668 5667 5667 5667 5667 5667 5667 5668 5669 5670 5672 5674 5676 5678 5680
5754 5746 5724 5716 5731 5742 5748 5741 5745 5760 5759 5757 5754 5751 5747 5742 5737 5732 5728 5723 5718 5715 5711 5706 5701 5697 5695 5691 5688 5685 5682 5679 5675 5672 5670 5668 5667 5666 5666 5665 5665 5666 5666 5667 5668 5668 5670 5673 5675
5747 5747 5753 5734 5738 5736 5747 5751 5748 5760 5757 5755 5752 5749 5746 5743 5739 5735 5731 5727 5723 5718 5714 5710 5705 5701 5699 5695 5692 5689 5685 5681 5677 5674 5672 5669 5667 5667 5666 5664 5664 5664 5664 5664 5664 5663 5665 5667 5669
5752 5748 5742 5731 5722 5724 5744 5745 5741 5745 5750 5752 5751 5748 5747 5746 5743 5739 5734 5730 5726 5723 5719 5715 5711 5706 5703 5699 5695 5692 5688 5684 5680 5677 5673 5670 5668 5667 5665 5664 5662 5661 5661 5661 5660 5659 5660 5661 5663
5741 5740 5739 5736 5736 5719 5722 5728 5757 5753 5753 5752 5752 5753 5750 5748 5744 5741 5737 5734 5730 5726 5723 5719 5715 5711 5706 5702 5698 5694 5691 5687 5683 5679 5676 5672 5670 5668 5665 5663 5660 5659 5658 5657 5655 5654 5654 5655 5656
5755 5749 5743 5725 5731 5737 5721 5728 5763 5760 5759 5757 5755 5755 5754 5751 5747 5743 5739 5735 5731 5727 5724 5721 5717 5713 5709 5705 5700 5696 5693 5689 5685 5681 5677 5674 5670 5668 5665 5662 5658 5656 5654 5652 5650 5648 5648 5648 5649